Regional Weather Roundup
Issued by NWS

Home | Current Version | Previous Version | Text Only | Print | Product List | Glossary On
Versions: 1 2 3 4 5 6 7 8 9 10 11 12 13 14 15 16 17 18 19 20 21 22 23 24 25 26 27 28 29 30 31 32 33 34 35 36 37 38 39 40 41 42 43 44 45 46 47 48 49 50
000
ASPQ40 PGUM 231712
RWRPQ
WEATHER ROUNDUP FOR THE MARIANAS AND MICRONESIA
NATIONAL WEATHER SERVICE TIYAN GU
300 AM CHST MON APR 24 2017

GUZ001>004-231800-
MARIANA ISLANDS-

CITY           SKY/WX    TMP DP  RH WIND       PRES   REMARKS
GUAM AIRPORT   PTCLDY    81  79  94 E13       29.86F
ANDERSEN AFB   MOCLDY    79  75  89 SE14      29.87F
ROTA AIRPORT   NOT AVBL
TINIAN AP      NOT AVBL
SAIPAN AP      MOCLDY    81  75  83 SE9       29.87F

$$

PMZ161-231800-
REPUBLIC OF PALAU-

CITY           SKY/WX    TMP DP  RH WIND       PRES   REMARKS
KOROR AP       PTCLDY    75  73  94 N5        29.80F
KOROR WSO      PTCLDY    77  77 100 CALM      29.81F

$$

PMZ171>174-231800-
FEDERATED STATES OF MICRONESIA-

CITY           SKY/WX    TMP DP  RH WIND       PRES   REMARKS
YAP AIRPORT    CLOUDY    81  77  89 VRB3      29.76F
CHUUK AP       CLOUDY    82  77  83 VRB5      29.82F HX  91
POHNPEI AP     NOT AVBL
POHNPEI WSO    CLOUDY    75  73  94 SE5       29.86S
KOSRAE AP      NOT AVBL

$$

PMZ181-231800-
REPUBLIC OF THE MARSHALL ISLANDS-

CITY           SKY/WX    TMP DP  RH WIND       PRES   REMARKS
KWAJALEIN AP   CLOUDY    82  75  78 NE22      29.85R
MAJURO AP      NOT AVBL
MAJURO WSO     LGT RAIN  77  75  94 E12       29.82S

$$




USA.gov is the U.S. government's official web portal to all federal, state and local government web resources and services.